Weather History for Alamosa, CO

Change the Weather History Date:

Wednesday, March 27, 2013

  Actual Average Record
Temperature  
Mean Temperature 43 °F 37 °F  
Max Temperature 62 °F 54 °F 69 °F (2012)
Min Temperature 24 °F 20 °F 2 °F (1955)
Degree Days  
Heating Degree Days 22 28  
Month to date heating degree days 868 865  
Since 1 July heating degree days 7655 7194  
Cooling Degree Days 0 0  
Month to date cooling degree days 0 0  
Year to date cooling degree days 0 0  
Moisture  
Dew Point 11 °F    
Average Humidity 37    
Maximum Humidity 63    
Minimum Humidity 10    
Precipitation  
Precipitation 0.00 in 0.02 in 0.81 in (1973)
Month to date precipitation 0.34 0.45  
Year to date precipitation 0.56 0.97  
Snow  
Snow 0.00 in 0.20 in 11.40 in (1973)
Month to date snowfall 3.4 4.3  
Since 1 July snowfall 18.9 22.4  
Snow Depth 0.00 in    
Sea Level Pressure  
Sea Level Pressure 29.97 in    
Wind  
Wind Speed 7 mph (WSW)    
Max Wind Speed 22 mph    
Max Gust Speed 30 mph    
Visibility 10 miles    
Events      
T = Trace of Precipitation, MM = Missing Value Source: NWS Daily Summary

Daily Weather History Graph

Daily Weather History Graph

Search for Another Location

Airport:

Trip Planner

Search our weather history database for the weather conditions in past years. The results will help you decide how hot, cold, wet, or windy it might be!

Date:

Astronomy

Mar. 27, 2013 Rise Set
Actual Time 6:55 AM MDT 7:21 PM MDT
Civil Twilight 6:29 AM MDT 7:48 PM MDT
Nautical Twilight 5:59 AM MDT 8:18 PM MDT
Astronomical Twilight 5:27 AM MDT 8:50 PM MDT
Moon 8:06 PM MDT (3/27) 6:49 AM MDT (3/27)
Length of Visible Light 13h 18m
Length of Day
12h 25m
Full, 100% of the Moon is Illuminated
Mar 27
Full
Apr 2
Last Quarter
Apr 10
New
Apr 18
First Quarter
Apr 25
Full

Hourly Weather History & Observations

Time (MDT) Temp. Windchill Dew Point Humidity Pressure Visibility Wind Dir Wind Speed Gust Speed Precip Events Conditions
12:52 AM 34.0 °F 29.8 °F 10.9 °F 38% 29.93 in 10.0 mi WSW 4.6 mph - N/A   Partly Cloudy
1:52 AM 34.0 °F 27.2 °F 12.9 °F 42% 29.91 in 10.0 mi WSW 8.1 mph - N/A   Mostly Cloudy
2:52 AM 37.0 °F 32.4 °F 17.1 °F 44% 29.88 in 10.0 mi West 5.8 mph - N/A   Mostly Cloudy
3:52 AM 39.0 °F 32.3 °F 19.0 °F 45% 29.88 in 10.0 mi West 10.4 mph - N/A   Overcast
4:52 AM 35.1 °F - 18.0 °F 50% 29.93 in 10.0 mi Calm Calm - N/A   Mostly Cloudy
5:52 AM 28.9 °F 21.1 °F 15.1 °F 56% 29.96 in 10.0 mi WSW 8.1 mph - N/A   Partly Cloudy
6:52 AM 27.0 °F 23.0 °F 15.1 °F 61% 30.03 in 10.0 mi NE 3.5 mph - N/A   Clear
7:52 AM 30.9 °F 25.2 °F 16.0 °F 54% 30.04 in 10.0 mi SSW 5.8 mph - N/A   Clear
8:52 AM 39.9 °F 37.8 °F 17.1 °F 40% 30.05 in 10.0 mi SSW 3.5 mph - N/A   Clear
9:52 AM 44.1 °F - 18.0 °F 35% 30.05 in 10.0 mi Calm Calm - N/A   Clear
10:52 AM 48.9 °F - 17.1 °F 28% 30.02 in 10.0 mi Variable 6.9 mph - N/A   Clear
11:52 AM 52.0 °F - 14.0 °F 22% 30.00 in 10.0 mi Variable 4.6 mph - N/A   Clear
12:52 PM 54.0 °F - 12.0 °F 19% 29.96 in 10.0 mi Calm Calm - N/A   Partly Cloudy
1:52 PM 59.0 °F - 8.1 °F 13% 29.90 in 10.0 mi South 11.5 mph 25.3 mph N/A   Partly Cloudy
2:52 PM 60.1 °F - 3.9 °F 11% 29.86 in 10.0 mi WSW 19.6 mph 25.3 mph N/A   Partly Cloudy
3:52 PM 57.9 °F - 5.0 °F 12% 29.86 in 10.0 mi WSW 6.9 mph 18.4 mph N/A   Partly Cloudy
4:31 PM 59.0 °F - 5.0 °F 12% 30.03 in 10.0 mi WSW 13.8 mph 28.8 mph N/A   Partly Cloudy
4:52 PM 59.0 °F - 3.9 °F 11% 29.88 in 10.0 mi WSW 13.8 mph 23.0 mph N/A   Partly Cloudy
5:52 PM 57.0 °F - 6.1 °F 13% 29.93 in 10.0 mi WSW 15.0 mph - N/A   Clear
6:52 PM 53.1 °F - 7.0 °F 16% 29.97 in 10.0 mi WSW 13.8 mph - N/A   Clear
7:52 PM 48.0 °F - 7.0 °F 19% 30.00 in 10.0 mi WSW 11.5 mph - N/A   Clear
8:52 PM 43.0 °F 38.2 °F 7.0 °F 23% 30.00 in 10.0 mi SW 8.1 mph - N/A   Clear
9:52 PM 39.0 °F 36.8 °F 8.1 °F 28% 30.02 in 10.0 mi WSW 3.5 mph - N/A   Clear
10:52 PM 37.0 °F 33.3 °F 8.1 °F 30% 30.02 in 10.0 mi WSW 4.6 mph - N/A   Clear
11:52 PM 35.1 °F 30.1 °F 9.0 °F 34% 30.02 in 10.0 mi West 5.8 mph - N/A   Clear